Location: Waco, TX
(31.5480°N, 97.1670°W)
Time: 18:32:15
(UTC-05:00)

ISS - Pass Details

Date: 21 September 2018
Orbit: 403 x 408 km, 51.6° (Epoch: 23 September)

Event Time Altitude Azimuth Distance (km) Brightness Sun altitude
Rises 03:44:35 0° 329° (NNW) 2,324 - -43.3°
Reaches altitude 10° 03:47:04 10° 347° (NNW) 1,460 - -42.9°
Maximum altitude 03:49:31 19° 36° (NE) 1,018 - -42.5°
Drops below altitude 10° 03:51:59 10° 86° (E) 1,453 - -42.0°
Sets 03:54:26 0° 104° (ESE) 2,308 - -41.6°
